| time (UTC) | temp F | wind direction | speed MPH | gust MPH | rain 1hr in | rain 24hr in | rain mn in | humidity % | barometer mb |
| 20260504184939 | 73 | 240 | 2.0 | 10.0 | 0.00 | 0.00 | 0.00 | 34 | 1008.3 |
| 20260504183937 | 74 | 228 | 7.0 | 13.0 | 0.00 | 0.00 | 0.00 | 33 | 1008.6 |
| 20260504183434 | 74 | 228 | 7.0 | 13.0 | 0.00 | 0.00 | 0.00 | 33 | 1008.6 |
| 20260504182932 | 74 | 228 | 7.0 | 13.0 | 0.00 | 0.00 | 0.00 | 33 | 1008.6 |
| 20260504175930 | 73 | 31 | 1.0 | 4.0 | 0.00 | 0.00 | 0.00 | 36 | 1009.1 |
| 20260504175426 | 73 | 31 | 1.0 | 4.0 | 0.00 | 0.00 | 0.00 | 36 | 1009.1 |
| 20260504174924 | 73 | 31 | 1.0 | 4.0 | 0.00 | 0.00 | 0.00 | 36 | 1009.1 |
| 20260504150402 | 67 | 10 | 2.0 | 8.0 | 0.00 | 0.00 | 0.00 | 34 | 1011.4 |
| 20260504130337 | 51 | 340 | 0.0 | 0.0 | 0.00 | 0.00 | 0.00 | 63 | 1012.3 |
| 20260504110316 | 42 | 2 | 0.0 | 0.0 | 0.00 | 0.00 | 0.00 | 76 | 1012.5 |
| 20260504100303 | 35 | 350 | 0.0 | 0.0 | 0.00 | 0.00 | 0.00 | 91 | 1012.4 |
| 20260504080231 | 36 | 349 | 0.0 | 0.0 | 0.00 | 0.00 | 0.00 | 90 | 1012.8 |
| 20260504070217 | 37 | 349 | 0.0 | 0.0 | 0.00 | 0.00 | 0.00 | 89 | 1012.5 |
| 20260504060207 | 38 | 349 | 0.0 | 0.0 | 0.00 | 0.00 | 0.00 | 85 | 1012.5 |
| 20260504050154 | 38 | 350 | 0.0 | 0.0 | 0.00 | 0.00 | 0.00 | 85 | 1012.6 |
| 20260504045652 | 38 | 350 | 0.0 | 0.0 | 0.00 | 0.00 | 0.00 | 85 | 1012.6 |
| 20260504045151 | 38 | 350 | 0.0 | 0.0 | 0.00 | 0.00 | 0.00 | 85 | 1012.6 |
| 20260504040144 | 41 | 349 | 0.0 | 0.0 | 0.00 | 0.00 | 0.00 | 77 | 1012.4 |
| 20260504035640 | 41 | 349 | 0.0 | 0.0 | 0.00 | 0.00 | 0.00 | 77 | 1012.4 |
| 20260504035137 | 41 | 349 | 0.0 | 0.0 | 0.00 | 0.00 | 0.00 | 77 | 1012.4 |
| 20260504034635 | 41 | 349 | 0.0 | 0.0 | 0.00 | 0.00 | 0.00 | 76 | 1012.1 |
| 20260504032635 | 42 | 352 | 0.0 | 0.0 | 0.00 | 0.00 | 0.00 | 73 | 1012.4 |
| 20260504032132 | 42 | 352 | 0.0 | 0.0 | 0.00 | 0.00 | 0.00 | 73 | 1012.4 |
| 20260504031629 | 42 | 352 | 0.0 | 0.0 | 0.00 | 0.00 | 0.00 | 73 | 1012.4 |
| 20260504030137 | 42 | 353 | 0.0 | 0.0 | 0.00 | 0.00 | 0.00 | 72 | 1012.2 |
| 20260504025634 | 42 | 353 | 0.0 | 0.0 | 0.00 | 0.00 | 0.00 | 72 | 1012.2 |
| 20260504025130 | 42 | 353 | 0.0 | 0.0 | 0.00 | 0.00 | 0.00 | 72 | 1012.2 |
| 20260504024628 | 44 | 354 | 0.0 | 0.0 | 0.00 | 0.00 | 0.00 | 69 | 1012.2 |
| 20260504024124 | 44 | 354 | 0.0 | 0.0 | 0.00 | 0.00 | 0.00 | 69 | 1012.2 |
| 20260504020126 | 47 | 356 | 0.0 | 0.0 | 0.00 | 0.00 | 0.00 | 61 | 1012.2 |
| 20260504015623 | 47 | 356 | 0.0 | 0.0 | 0.00 | 0.00 | 0.00 | 61 | 1012.2 |
| 20260504015120 | 47 | 356 | 0.0 | 0.0 | 0.00 | 0.00 | 0.00 | 61 | 1012.2 |
| 20260504014615 | 47 | 4 | 0.0 | 0.0 | 0.00 | 0.00 | 0.00 | 60 | 1011.9 |
| 20260504014113 | 47 | 4 | 0.0 | 0.0 | 0.00 | 0.00 | 0.00 | 60 | 1011.9 |
| 20260504012113 | 49 | 1 | 0.0 | 0.0 | 0.00 | 0.00 | 0.00 | 56 | 1011.9 |
| 20260504011610 | 49 | 1 | 0.0 | 0.0 | 0.00 | 0.00 | 0.00 | 56 | 1011.9 |
| 20260504011106 | 49 | 1 | 0.0 | 0.0 | 0.00 | 0.00 | 0.00 | 56 | 1011.9 |
| 20260504010122 | 50 | 348 | 0.0 | 0.0 | 0.00 | 0.00 | 0.00 | 50 | 1011.6 |
| 20260504005619 | 50 | 348 | 0.0 | 0.0 | 0.00 | 0.00 | 0.00 | 50 | 1011.6 |
| 20260504005116 | 50 | 348 | 0.0 | 0.0 | 0.00 | 0.00 | 0.00 | 50 | 1011.6 |
| 20260504004614 | 50 | 355 | 0.0 | 1.0 | 0.00 | 0.00 | 0.00 | 49 | 1011.6 |
| 20260504004111 | 50 | 355 | 0.0 | 1.0 | 0.00 | 0.00 | 0.00 | 49 | 1011.6 |
| 20260504000058 | 56 | 338 | 0.0 | 2.0 | 0.00 | 0.00 | 0.00 | 40 | 1011.2 |
| 20260503235556 | 56 | 338 | 0.0 | 2.0 | 0.00 | 0.00 | 0.00 | 40 | 1011.2 |
| 20260503235053 | 56 | 338 | 0.0 | 2.0 | 0.00 | 0.00 | 0.00 | 40 | 1011.2 |
| 20260503234550 | 56 | 325 | 0.0 | 2.0 | 0.00 | 0.00 | 0.00 | 39 | 1010.9 |
| 20260503234048 | 56 | 325 | 0.0 | 2.0 | 0.00 | 0.00 | 0.00 | 39 | 1010.9 |
| 20260503230047 | 59 | 281 | 2.0 | 6.0 | 0.00 | 0.00 | 0.00 | 34 | 1011.0 |
| 20260503225544 | 59 | 281 | 2.0 | 6.0 | 0.00 | 0.00 | 0.00 | 34 | 1011.0 |
| 20260503225038 | 59 | 281 | 2.0 | 6.0 | 0.00 | 0.00 | 0.00 | 34 | 1011.0 |
| 20260503224536 | 61 | 281 | 2.0 | 4.0 | 0.00 | 0.00 | 0.00 | 32 | 1010.9 |
| 20260503224034 | 61 | 281 | 2.0 | 4.0 | 0.00 | 0.00 | 0.00 | 32 | 1010.9 |
| 20260503223532 | 61 | 281 | 2.0 | 4.0 | 0.00 | 0.00 | 0.00 | 32 | 1010.9 |
| 20260503220035 | 61 | 284 | 3.0 | 8.0 | 0.00 | 0.00 | 0.00 | 34 | 1010.9 |
| 20260503215532 | 61 | 284 | 3.0 | 8.0 | 0.00 | 0.00 | 0.00 | 34 | 1010.9 |
| 20260503215029 | 61 | 284 | 3.0 | 8.0 | 0.00 | 0.00 | 0.00 | 34 | 1010.9 |
| 20260503214527 | 60 | 303 | 2.0 | 3.0 | 0.00 | 0.00 | 0.00 | 33 | 1010.7 |
| 20260503214024 | 60 | 303 | 2.0 | 3.0 | 0.00 | 0.00 | 0.00 | 33 | 1010.7 |
| 20260503213522 | 60 | 303 | 2.0 | 3.0 | 0.00 | 0.00 | 0.00 | 33 | 1010.7 |
| 20260503210032 | 64 | 293 | 7.0 | 13.0 | 0.00 | 0.00 | 0.00 | 30 | 1010.4 |
| 20260503205529 | 64 | 293 | 7.0 | 13.0 | 0.00 | 0.00 | 0.00 | 30 | 1010.4 |
| 20260503205026 | 64 | 293 | 7.0 | 13.0 | 0.00 | 0.00 | 0.00 | 30 | 1010.4 |
| 20260503204523 | 63 | 276 | 0.0 | 2.0 | 0.00 | 0.00 | 0.00 | 33 | 1010.7 |
| 20260503204020 | 63 | 276 | 0.0 | 2.0 | 0.00 | 0.00 | 0.00 | 33 | 1010.7 |
| 20260503203517 | 63 | 276 | 0.0 | 2.0 | 0.00 | 0.00 | 0.00 | 33 | 1010.7 |
| 20260503203014 | 61 | 354 | 2.0 | 7.0 | 0.00 | 0.00 | 0.00 | 31 | 1010.7 |
| 20260503202512 | 62 | 296 | 4.0 | 6.0 | 0.00 | 0.00 | 0.00 | 30 | 1010.8 |
| 20260503202010 | 62 | 296 | 4.0 | 6.0 | 0.00 | 0.00 | 0.00 | 30 | 1010.8 |
| 20260503201507 | 62 | 296 | 4.0 | 6.0 | 0.00 | 0.00 | 0.00 | 30 | 1010.8 |
| 20260503200009 | 61 | 288 | 2.0 | 3.0 | 0.00 | 0.00 | 0.00 | 32 | 1010.9 |
| 20260503195506 | 61 | 288 | 2.0 | 3.0 | 0.00 | 0.00 | 0.00 | 32 | 1010.9 |
| 20260503195002 | 61 | 288 | 2.0 | 3.0 | 0.00 | 0.00 | 0.00 | 32 | 1010.9 |
| 20260503194011 | 61 | 57 | 1.0 | 3.0 | 0.00 | 0.00 | 0.00 | 34 | 1011.2 |
| 20260503193508 | 61 | 57 | 1.0 | 3.0 | 0.00 | 0.00 | 0.00 | 34 | 1011.2 |
| 20260503193003 | 61 | 57 | 1.0 | 3.0 | 0.00 | 0.00 | 0.00 | 34 | 1011.2 |
| 20260503192500 | 60 | 302 | 5.0 | 8.0 | 0.00 | 0.00 | 0.00 | 32 | 1011.3 |
| 20260503185956 | 61 | 82 | 1.0 | 8.0 | 0.00 | 0.00 | 0.00 | 30 | 1011.5 |
| 20260503185452 | 61 | 82 | 1.0 | 8.0 | 0.00 | 0.00 | 0.00 | 30 | 1011.5 |